Wind_Speed
15 19 22 21 20 19 19 19 19 18 17 16 15 14 13 11 8 6 6 5 5 6 8 9 11 14 16 18 20 23 25 29
16 16 19 18 17 16 15 16 16 15 13 13 13 12 11 10 10 9 8 8 8 9 11 11 13 15 18 20 24 27 30 33
17 18 19 17 15 14 13 11 10 10 10 12 12 13 12 14 11 10 12 13 13 13 13 14 16 19 22 26 30 33 35 38
13 13 14 15 15 15 14 13 13 12 12 13 12 14 14 14 14 13 15 16 18 17 16 17 19 23 27 31 34 36 42 45
14 10 11 9 9 13 12 12 12 12 13 14 14 13 16 14 17 19 18 18 20 21 22 23 25 28 32 35 36 39 45 49
18 18 15 13 12 9 12 14 14 14 16 17 16 14 15 17 20 21 23 24 25 25 26 28 30 32 37 42 47 37 41 40
21 20 20 20 19 19 17 14 15 16 17 18 17 13 15 16 20 19 23 22 25 27 27 33 32 32 34 32 38 34 39 41
21 22 24 25 22 22 20 20 19 17 18 22 20 16 19 18 20 23 28 25 26 26 28 30 28 31 35 37 37 34 39 35
22 23 23 24 24 24 21 23 20 18 19 24 23 26 28 25 28 27 27 27 27 29 30 28 31 39 38 35 39 39 37 39
17 20 20 20 21 22 19 20 20 19 20 21 22 24 23 23 24 23 24 25 26 27 26 29 37 35 35 39 34 40 40 41
7 10 13 13 16 19 21 16 18 20 20 20 22 26 24 26 26 27 22 24 27 28 24 32 31 40 33 37 41 39 50 36
6 9 12 12 14 19 15 18 17 15 15 17 20 23 24 27 27 28 29 30 28 24 24 31 33 38 36 39 41 47 40 34
7 7 11 6 6 9 10 10 11 12 16 19 22 24 24 26 29 31 33 29 27 18 28 33 34 43 44 47 47 42 33 39
4 6 6 6 7 7 9 12 17 20 20 21 24 28 30 31 30 30 28 26 27 27 27 37 35 41 36 43 47 33 40 35
13 11 9 12 13 14 17 20 23 23 24 25 28 32 34 33 32 32 29 28 27 26 34 38 40 44 47 47 31 38 41 37
17 15 17 17 18 20 23 23 23 25 28 31 33 35 38 39 36 34 28 26 30 34 38 45 53 52 50 38 39 39 39 35
19 21 21 21 21 22 24 24 25 27 30 33 35 31 30 31 30 27 26 29 34 37 43 42 42 33 38 38 39 40 42 33
23 23 21 20 20 21 22 25 29 31 30 27 25 25 25 26 25 26 27 32 38 45 50 45 44 39 37 38 39 45 36 33
19 18 17 17 19 22 26 29 28 26 25 25 26 28 28 28 27 27 30 36 46 43 46 38 34 34 35 39 42 35 35 33
Wind_Direction
151 153 157 161 157 153 155 155 154 155 155 159 166 171 178 191 204 213 214 231 257 272 291 295 301 296 303 308 317 321 323 326
154 159 164 166 165 164 166 167 167 161 158 164 171 181 194 200 211 225 231 241 261 277 285 283 286 293 300 303 308 312 315 315
156 164 174 176 178 181 179 177 179 178 181 188 199 214 223 231 248 251 246 243 253 261 275 279 285 291 297 299 302 305 308 310
170 169 169 179 187 193 192 194 201 206 213 222 231 243 240 257 262 265 257 253 255 262 270 277 283 286 289 291 296 304 305 316
195 181 186 172 199 206 207 213 223 227 234 244 247 259 258 261 261 260 264 260 258 261 268 274 278 282 286 292 295 296 301 309
213 207 200 200 205 210 225 231 234 244 246 246 246 254 262 259 261 264 265 264 258 262 267 273 279 289 298 305 291 305 308 308
227 226 229 227 225 225 226 234 239 250 257 265 243 255 265 264 264 273 270 271 265 266 273 278 284 294 306 307 312 309 305 307
243 238 237 237 236 236 240 245 254 266 274 278 276 268 273 279 272 273 277 270 273 271 273 280 291 293 294 304 310 310 310 314
229 229 235 239 244 246 251 251 258 264 272 280 270 253 259 270 272 270 269 271 277 275 282 283 291 286 281 305 313 304 311 317
244 245 229 230 238 242 244 244 247 254 264 262 264 263 266 278 277 279 274 273 283 283 284 286 286 290 302 303 302 305 313 309
225 218 222 217 226 222 226 233 238 247 250 257 264 269 272 275 277 279 274 272 268 270 283 280 291 297 298 306 303 303 303 305
256 225 207 223 249 224 229 232 244 245 237 253 268 275 278 279 281 277 269 275 276 277 294 285 293 292 298 301 301 301 301 316
301 262 234 229 215 208 209 227 246 259 262 269 274 276 280 284 285 279 291 284 281 277 284 301 293 293 303 300 299 294 311 320
255 194 207 224 231 241 260 259 263 267 275 281 287 287 285 284 285 283 281 279 291 267 287 299 282 292 295 299 296 305 316 317
236 233 240 233 233 237 247 256 265 268 273 276 278 281 282 283 281 279 279 283 290 277 290 267 272 293 283 289 297 312 315 313
242 247 249 251 246 246 254 270 276 277 278 281 283 284 282 278 276 278 283 280 280 285 282 289 287 288 302 301 310 310 311 302
241 247 254 255 255 260 263 268 273 276 279 279 284 286 282 281 277 278 280 277 271 278 288 296 303 311 316 304 308 308 308 291
249 253 255 257 262 266 273 279 282 283 285 287 287 286 281 278 278 282 283 285 285 284 281 280 318 303 303 304 303 303 296 290
244 248 256 266 275 283 287 288 288 289 290 289 288 287 285 285 284 288 286 290 287 287 292 299 301 301 300 301 300 297 295 295
Height
3138 3139 3141 3143 3146 3148 3150 3152 3155 3157 3160 3162 3164 3165 3167 3169 3170 3171 3171 3172 3173 3173 3173 3172 3172 3173 3170 3169 3168 3165 3163 3161
3139 3140 3143 3145 3146 3149 3152 3154 3156 3157 3159 3161 3163 3165 3166 3166 3167 3167 3167 3168 3169 3169 3170 3169 3169 3168 3166 3165 3163 3161 3159 3157
3139 3141 3142 3144 3146 3149 3150 3153 3155 3157 3158 3161 3161 3162 3163 3163 3162 3163 3165 3165 3165 3166 3165 3165 3164 3164 3162 3161 3158 3156 3154 3152
3138 3140 3142 3144 3146 3148 3150 3152 3154 3155 3157 3157 3158 3159 3160 3160 3161 3161 3161 3161 3161 3161 3160 3160 3160 3158 3157 3155 3152 3151 3148 3145
3137 3139 3140 3142 3144 3145 3146 3148 3149 3150 3152 3153 3155 3156 3156 3156 3157 3156 3155 3156 3156 3156 3156 3155 3154 3152 3150 3148 3146 3143 3141 3137
3134 3136 3138 3140 3141 3142 3144 3145 3146 3147 3149 3150 3151 3152 3152 3152 3151 3150 3150 3150 3150 3150 3150 3149 3148 3146 3144 3142 3136 3134 3131 3129
3131 3133 3134 3136 3138 3139 3140 3141 3142 3144 3145 3146 3146 3145 3146 3146 3146 3145 3145 3144 3144 3144 3144 3143 3141 3139 3136 3132 3129 3125 3123 3119
3125 3126 3128 3131 3133 3134 3136 3137 3138 3139 3140 3140 3139 3139 3140 3140 3139 3140 3138 3138 3138 3138 3137 3136 3133 3130 3128 3125 3121 3117 3113 3110
3117 3120 3123 3125 3128 3130 3132 3133 3134 3135 3135 3135 3135 3135 3135 3134 3135 3134 3132 3131 3131 3130 3129 3127 3124 3121 3118 3116 3113 3108 3105 3101
3111 3113 3116 3119 3121 3124 3127 3129 3130 3131 3131 3130 3130 3130 3129 3128 3128 3126 3125 3125 3123 3122 3121 3119 3115 3111 3111 3107 3104 3100 3096 3092
3107 3108 3110 3113 3115 3117 3120 3123 3124 3125 3125 3125 3124 3123 3122 3122 3121 3119 3118 3117 3115 3113 3112 3108 3105 3104 3102 3099 3095 3091 3087 3081
3104 3105 3106 3108 3109 3111 3114 3116 3117 3118 3119 3119 3118 3117 3116 3116 3114 3112 3110 3108 3105 3103 3103 3101 3100 3097 3094 3089 3086 3082 3076 3072
3102 3102 3104 3105 3106 3107 3110 3112 3113 3114 3114 3113 3112 3110 3109 3109 3106 3104 3101 3098 3097 3097 3096 3093 3092 3088 3084 3079 3076 3070 3067 3062
3100 3100 3101 3103 3104 3105 3107 3107 3108 3108 3108 3106 3105 3103 3101 3100 3098 3096 3094 3092 3090 3087 3086 3085 3081 3078 3073 3069 3066 3062 3058 3053
3096 3097 3098 3099 3100 3102 3102 3102 3102 3101 3100 3099 3098 3096 3093 3091 3090 3088 3086 3084 3082 3079 3077 3073 3068 3065 3062 3058 3057 3054 3050 3046
3092 3093 3094 3095 3096 3097 3097 3096 3095 3094 3093 3092 3090 3088 3086 3083 3081 3079 3076 3075 3074 3071 3067 3065 3060 3055 3055 3053 3050 3046 3042 3038
3087 3087 3088 3089 3090 3091 3091 3091 3090 3089 3087 3084 3082 3079 3076 3075 3072 3071 3069 3067 3063 3061 3056 3055 3052 3051 3048 3045 3041 3036 3033 3030
3080 3082 3083 3083 3084 3084 3084 3084 3082 3080 3078 3075 3073 3071 3068 3066 3064 3062 3061 3059 3056 3050 3047 3044 3044 3043 3040 3036 3033 3027 3024 3022
3076 3077 3077 3078 3078 3077 3077 3075 3073 3071 3069 3067 3064 3062 3060 3057 3055 3054 3053 3051 3046 3044 3042 3041 3037 3035 3031 3027 3023 3018 3015 3013